RH
28 38 41 34 32 27 27 29 30 25 18 26 23 28 24 23 25 30 27 32 34 35 33 35 35 41 44 43 44 48 50 55 61 62 70 67 76 76 84 95 88 89 89 89
30 37 28 25 25 26 28 30 31 25 21 26 31 32 27 24 24 27 27 33 32 30 32 35 39 44 44 49 47 48 49 51 59 61 66 74 74 75 82 92 83 91 92 91
32 26 22 24 26 26 28 31 31 30 30 29 32 34 32 26 26 24 28 30 31 31 33 35 35 38 47 50 50 48 49 50 54 60 64 67 68 69 74 70 80 77 76 89
28 21 23 27 27 25 33 25 29 33 42 52 38 51 34 31 30 30 32 33 33 33 34 34 37 38 45 56 52 50 46 48 42 52 62 71 72 66 64 70 66 63 78 70
33 27 29 31 27 26 35 33 35 38 44 50 40 50 39 30 34 35 38 36 38 38 37 39 37 34 46 48 50 47 44 47 50 57 59 58 60 61 64 64 65 62 62 70
33 26 27 28 26 28 29 34 38 41 44 63 42 43 47 35 32 37 35 34 36 38 39 36 35 36 42 46 46 50 48 46 50 55 58 64 70 75 69 64 70 68 67 66
38 33 28 25 36 33 34 47 76 76 69 62 36 43 47 39 31 34 37 39 40 41 41 39 38 37 37 41 46 46 48 46 47 54 57 66 70 69 68 70 76 75 72 73
53 52 35 31 33 38 40 43 72 91 94 68 42 53 49 40 37 35 36 39 39 41 40 39 39 41 38 38 39 50 49 48 55 66 72 70 66 66 66 66 69 79 78 78
56 44 30 31 33 35 47 52 43 63 66 78 54 42 40 39 42 41 38 40 45 42 38 36 35 37 38 38 42 51 59 62 73 76 72 70 71 77 78 76 84 80 75 76
54 63 42 38 34 37 43 41 65 79 99 96 57 50 53 49 47 44 45 48 44 40 35 35 33 35 35 41 44 66 66 77 79 79 81 80 86 85 84 82 87 85 88 92
49 67 66 49 49 53 55 60 60 65 82 100 96 71 44 45 44 47 47 49 43 36 37 35 34 31 33 42 52 66 80 85 86 84 88 87 89 90 90 92 92 93 86 84
67 77 89 72 48 50 59 63 67 97 95 94 94 82 48 50 46 49 48 38 37 34 33 36 31 31 38 51 58 67 88 88 90 90 92 90 89 89 86 83 81 87 88 85
62 81 93 69 69 61 68 63 64 79 93 96 99 88 46 41 52 65 72 65 38 28 26 31 32 40 42 58 65 69 89 90 89 93 94 93 92 90 90 92 89 89 88 86
70 80 77 80 64 71 82 67 68 82 98 88 92 81 59 48 62 80 78 60 29 25 25 30 44 44 46 61 67 70 90 90 92 93 94 94 90 89 88 84 83 83 83 87
84 99 93 86 79 76 83 82 82 84 76 98 84 76 60 56 75 86 83 69 23 24 27 38 41 44 56 68 71 72 90 91 91 90 90 88 88 87 88 84 83 81 82 79
94 100 98 100 79 78 85 78 76 75 76 77 79 85 59 58 49 35 28 24 24 27 34 40 45 48 58 65 72 74 86 90 92 90 88 84 82 77 87 89 86 82 79 72
100 100 100 88 76 93 95 71 61 69 67 74 93 74 58 59 52 29 30 28 33 38 42 49 52 56 61 67 69 76 82 89 93 93 83 71 80 74 76 84 78 78 85 84
100 99 100 97 94 95 58 36 35 57 48 50 44 38 27 33 36 33 31 38 38 40 49 51 57 58 61 66 68 74 80 81 86 86 80 81 86 83 76 83 82 81 78 83
87 97 100 98 91 79 64 43 47 50 46 47 47 39 38 36 36 40 39 46 50 50 52 59 60 63 60 65 67 72 76 79 80 80 82 82 86 86 72 80 78 78 81 88
97 98 99 99 98 92 60 31 26 31 59 52 66 64 59 57 78 69 43 54 56 49 52 55 54 54 59 61 67 70 70 70 73 76 78 80 84 82 80 75 82 85 90 88
99 99 98 97 99 95 48 33 36 73 79 56 50 50 51 65 68 50 53 54 51 57 53 52 53 55 52 50 61 64 63 65 64 63 73 79 81 83 81 77 82 85 90 89
87 96 98 98 99 96 42 43 67 68 62 54 47 44 54 50 48 46 42 50 46 46 49 48 50 48 45 43 50 56 59 56 52 54 59 67 78 78 76 78 74 79 89 93
98 92 98 88 94 52 46 62 48 55 62 51 45 41 45 50 46 49 50 40 39 38 38 40 46 47 43 39 44 48 50 48 49 52 54 64 70 78 80 84 83 85 88 88
88 71 98 74 58 48 44 35 39 44 48 39 33 34 40 50 47 40 39 39 41 45 49 49 49 52 52 42 38 44 47 46 49 54 57 61 70 80 84 84 85 88 87 85
91 69 75 76 58 49 43 42 44 40 38 37 40 40 42 42 46 58 57 64 65 64 60 57 56 56 55 50 46 45 44 48 50 54 57 66 71 77 87 87 93 96 91 94
49 54 81 84 52 62 49 43 38 40 42 44 48 49 51 60 70 78 90 90 89 88 88 91 94 94 81 72 61 47 52 49 59 62 62 74 80 85 90 94 96 86 86 84
Wind_Speed
7 3 7 12 12 13 7 7 8 11 9 1 5 4 7 9 5 8 14 16 15 14 9 9 7 9 9 9 9 8 9 8 5 5 5 5 4 5 5 4 5 7 6 5
7 10 15 15 8 5 6 7 8 9 11 5 5 7 7 11 4 7 19 15 14 11 9 9 8 8 8 8 7 8 8 8 5 4 4 3 4 3 4 5 8 7 7 8
8 9 6 2 4 6 7 5 7 7 7 10 9 10 7 6 10 18 15 14 11 12 10 10 8 8 7 8 8 7 7 7 5 6 3 3 3 3 4 5 4 6 9 8
9 8 4 2 4 7 7 9 8 9 7 5 4 12 18 5 9 12 13 12 11 9 9 8 8 7 7 5 7 7 6 6 7 8 7 7 6 9 7 5 6 8 7 12
6 8 5 4 8 5 3 6 6 6 9 5 22 9 15 7 10 12 11 12 10 9 9 8 7 8 6 7 6 6 8 8 8 8 8 7 9 8 7 9 12 12 11 12
13 8 6 7 3 3 7 8 7 7 9 5 21 9 7 2 14 14 12 11 10 9 8 6 7 8 6 5 6 5 6 3 3 3 5 6 6 6 7 11 11 10 9 11
6 13 14 7 5 7 9 7 5 5 4 6 6 5 2 13 17 18 17 12 9 8 7 6 8 7 6 6 5 3 4 4 6 7 8 8 8 9 10 10 7 9 10 11
3 7 2 2 4 3 1 2 3 5 4 9 11 7 1 7 13 13 13 11 8 7 7 7 6 5 4 6 6 4 3 6 6 7 7 8 11 9 11 11 10 7 9 11
2 2 5 12 6 3 2 2 3 7 6 5 6 5 1 6 7 8 8 8 7 7 7 7 6 5 4 3 3 4 6 6 7 8 9 12 12 13 13 15 7 8 12 11
3 2 6 6 4 1 2 3 1 3 6 5 4 5 5 10 9 9 8 8 7 6 6 5 4 3 2 2 2 7 7 6 4 6 7 10 12 13 12 12 12 12 10 7
4 5 3 6 1 2 5 3 5 4 1 4 3 5 7 13 14 13 9 8 8 6 5 5 3 2 1 1 6 6 6 6 6 8 9 12 12 12 12 9 11 8 5 7
1 4 3 7 5 2 1 3 4 4 7 5 4 7 1 8 8 8 7 8 7 6 5 6 5 4 3 6 5 6 5 5 5 4 5 9 11 11 11 9 8 7 6 6
5 1 2 6 5 2 3 2 3 3 0 14 13 5 3 7 9 7 5 4 1 5 5 4 3 4 3 4 6 5 5 3 1 3 4 7 10 11 10 11 11 7 6 6
7 3 8 9 6 2 6 10 6 5 5 15 14 20 6 10 9 4 3 6 6 5 5 4 5 2 2 5 5 3 5 3 2 2 5 6 9 11 10 10 10 7 8 7
3 6 4 6 5 7 12 15 14 17 20 16 20 24 15 9 8 14 13 13 7 5 4 4 2 3 5 4 4 2 4 1 1 3 4 7 9 10 10 10 9 8 8 8
4 3 1 3 10 14 17 16 20 21 22 23 28 28 16 18 18 7 7 7 5 5 3 4 2 2 2 3 3 1 3 3 2 5 5 5 6 9 8 9 9 9 8 10
3 4 2 16 5 12 14 17 18 13 15 15 18 22 17 14 4 7 5 5 4 1 3 4 3 2 0 2 3 3 4 4 4 5 5 5 5 10 10 8 9 10 8 8
6 5 2 9 5 21 8 2 4 5 8 6 5 8 6 6 6 6 5 2 5 5 3 3 2 3 5 4 5 5 5 5 5 6 4 4 5 7 9 7 7 9 9 8
4 5 3 7 12 14 13 6 1 3 2 8 5 7 7 4 3 1 3 3 3 3 5 6 7 5 5 7 7 7 5 6 6 6 5 6 5 5 8 6 8 7 7 6
5 4 4 2 7 12 2 4 6 2 3 5 4 5 5 5 4 5 4 5 6 7 4 2 5 6 7 9 7 7 7 6 6 6 6 6 6 6 5 6 6 4 5 7
4 2 10 10 6 6 1 4 3 3 3 1 2 2 1 1 6 6 7 9 8 7 7 7 7 8 10 10 8 8 7 6 6 6 5 6 6 6 6 5 3 4 5 7
8 7 5 4 6 7 5 4 3 3 2 3 3 4 4 5 7 8 9 8 7 7 8 9 7 7 9 10 7 7 8 8 6 5 4 5 5 4 2 3 6 6 5 5
4 7 5 7 3 2 1 4 3 6 6 6 6 7 8 9 10 10 8 8 7 9 6 2 5 6 4 8 8 7 7 7 6 6 5 4 3 1 1 2 5 5 4 4
4 7 2 3 3 1 2 4 2 2 4 5 3 5 6 6 8 8 8 7 6 2 3 3 6 7 7 4 5 7 6 6 6 5 2 1 1 0 1 1 1 3 4 5
5 5 6 3 2 3 2 5 5 7 9 9 8 7 7 8 9 10 9 10 10 10 11 11 11 10 8 6 5 6 8 7 6 6 3 0 2 2 4 4 3 3 5 3
3 5 5 5 0 4 3 6 8 6 6 9 12 12 13 16 12 11 8 9 10 11 12 12 12 16 15 11 9 14 7 7 7 5 4 3 2 2 3 3 3 6 8 10
Wind_Direction
234 157 228 239 215 239 286 338 327 306 289 275 243 283 279 287 301 117 120 124 115 110 109 100 94 88 80 63 49 40 29 4 27 7 8 1 355 338 331 306 333 323 321 331
277 207 235 253 269 325 324 310 291 286 291 10 332 302 291 288 295 153 137 128 120 116 111 103 92 83 83 84 68 52 34 4 7 21 1 9 341 320 318 349 338 318 314 307
212 244 258 240 319 319 294 255 273 272 327 329 349 314 316 29 80 98 107 124 122 124 117 105 86 73 81 78 63 52 34 10 23 9 345 328 319 331 345 326 322 322 319 301
264 229 177 193 279 263 259 275 320 335 4 281 12 283 285 159 96 95 103 103 104 98 87 90 84 68 84 78 58 54 32 24 13 9 11 5 352 341 329 325 323 322 308 303
261 308 299 235 236 268 284 350 326 312 306 315 281 273 258 172 144 139 115 105 103 104 101 90 94 86 91 69 63 34 15 18 18 23 9 358 350 341 342 331 322 323 320 307
274 278 286 238 267 67 346 301 298 279 263 248 259 284 278 186 164 137 127 121 114 107 99 98 80 92 85 60 47 40 52 4 12 12 342 336 321 318 323 318 319 324 326 322
294 269 253 233 89 2 38 24 328 318 338 242 345 312 303 326 145 139 128 116 113 116 120 92 79 63 51 43 39 41 35 346 344 354 354 343 327 314 305 303 300 312 316 312
259 314 36 9 105 121 16 150 181 303 302 294 320 270 121 23 72 102 110 123 123 107 92 94 87 78 49 32 13 13 338 354 22 25 1 334 322 316 309 306 302 303 303 301
265 214 79 65 47 94 88 1 256 288 290 274 211 109 132 113 98 108 124 124 124 101 92 87 73 45 42 0 343 359 36 37 36 15 348 331 326 320 315 312 309 299 301 295
118 264 34 26 44 88 137 240 15 338 293 257 241 239 193 178 168 161 159 154 134 118 107 108 93 57 317 323 1 91 73 69 37 6 349 333 325 319 309 305 304 300 295 293
88 112 298 42 9 3 343 353 0 16 188 263 280 249 176 187 176 179 175 161 138 127 120 144 153 171 221 62 78 88 85 64 25 10 351 341 326 317 314 309 305 300 336 348
85 126 210 221 256 334 147 247 157 169 275 249 242 258 231 109 137 132 128 132 147 160 200 166 169 179 100 96 91 78 89 61 32 345 340 333 330 335 347 351 331 341 340 335
170 77 29 320 348 278 193 70 300 288 18 269 263 268 122 128 112 98 93 341 179 165 138 138 104 90 54 126 96 79 98 97 326 308 331 333 332 330 326 329 313 305 310 319
73 165 174 228 227 287 282 282 274 218 242 274 249 273 197 177 158 193 186 254 206 147 109 96 81 63 50 120 119 126 156 155 237 355 344 331 328 317 324 325 330 341 357 6
120 196 245 244 283 293 285 280 258 250 255 243 262 263 260 284 200 205 181 211 162 124 100 112 79 328 111 124 129 110 150 199 291 14 338 326 320 317 318 329 335 347 356 347
8 193 79 255 259 261 270 262 259 256 258 256 255 263 267 281 281 117 149 129 137 135 141 112 68 62 116 134 137 91 173 239 256 281 290 295 300 314 313 313 326 334 333 336
151 136 131 273 302 317 281 260 257 250 243 242 250 262 274 263 204 115 115 101 105 178 204 117 121 127 248 196 176 219 217 222 245 267 278 303 317 310 316 314 331 329 324 328
171 121 170 288 334 276 286 64 69 224 261 251 284 25 69 82 106 115 114 138 256 255 134 130 172 226 248 228 219 211 200 225 241 250 254 278 279 296 311 319 320 317 322 326
158 134 226 261 262 294 292 332 353 149 294 9 29 41 75 75 93 34 43 20 105 172 201 205 210 215 225 241 233 203 216 235 243 250 219 250 256 271 310 308 312 315 326 329
55 71 183 153 262 276 143 72 50 27 257 2 77 50 37 25 16 264 328 317 300 264 238 194 235 234 240 248 222 187 212 233 252 231 221 226 240 252 270 305 296 305 317 307
152 190 215 225 251 285 90 105 6 97 245 31 59 80 18 226 204 240 271 268 251 208 211 233 240 243 241 248 184 189 199 227 244 201 209 230 246 242 252 287 318 309 310 300
175 178 197 199 225 259 109 33 143 198 217 224 256 273 285 274 283 280 274 264 263 251 245 236 233 252 256 243 179 197 205 220 195 179 201 255 246 243 298 335 322 322 314 331
190 198 176 201 213 237 149 175 194 186 199 229 231 264 268 261 260 269 261 265 260 259 274 298 304 305 335 164 225 224 216 192 182 176 223 251 234 200 13 3 328 319 313 321
37 191 168 99 175 78 308 306 324 296 285 303 295 305 327 303 275 276 272 280 314 341 328 308 288 275 278 260 234 237 205 189 161 153 131 354 316 104 283 291 296 295 305 311
181 152 206 226 315 16 71 53 34 4 353 342 333 315 302 306 341 5 3 8 3 359 352 343 315 290 265 291 302 260 200 171 163 149 138 213 196 257 260 239 211 238 272 235
206 197 153 208 155 160 41 10 10 344 329 3 3 1 14 14 11 10 12 14 9 9 9 1 351 324 332 337 311 292 185 172 157 160 176 173 163 254 271 225 264 267 265 281